Year,Month,Day,Hour,Minute,Value (Times are PST for temperature in C)
2013,04,14,00,00,4.30
2013,04,14,00,01,4.30
2013,04,14,00,02,4.30
2013,04,14,00,03,4.30
2013,04,14,00,04,4.30
2013,04,14,00,05,4.30
2013,04,14,00,06,4.30
2013,04,14,00,07,4.30
2013,04,14,00,08,4.30
2013,04,14,00,09,4.30
2013,04,14,00,10,4.30
2013,04,14,00,11,4.20
2013,04,14,00,12,4.20
2013,04,14,00,13,4.20
2013,04,14,00,14,4.20
2013,04,14,00,15,4.20
2013,04,14,00,16,4.20
2013,04,14,00,17,4.20
2013,04,14,00,18,4.20
2013,04,14,00,19,4.20
2013,04,14,00,20,4.20
2013,04,14,00,21,4.20
2013,04,14,00,22,4.20
2013,04,14,00,23,4.20
2013,04,14,00,24,4.20
2013,04,14,00,25,4.20
2013,04,14,00,26,4.20
2013,04,14,00,27,4.30
2013,04,14,00,28,4.30
2013,04,14,00,29,4.30
2013,04,14,00,30,4.30
2013,04,14,00,31,4.30
2013,04,14,00,32,4.30
2013,04,14,00,33,4.30
2013,04,14,00,34,4.30
2013,04,14,00,35,4.30
2013,04,14,00,36,4.40
2013,04,14,00,37,4.40
2013,04,14,00,38,4.40
2013,04,14,00,39,4.40
2013,04,14,00,40,4.40
2013,04,14,00,41,4.40
2013,04,14,00,42,4.40
2013,04,14,00,43,4.40
2013,04,14,00,44,4.40
2013,04,14,00,45,4.40
2013,04,14,00,46,4.40
2013,04,14,00,47,4.30
2013,04,14,00,48,4.40
2013,04,14,00,49,4.30
2013,04,14,00,50,4.30
2013,04,14,00,51,4.30
2013,04,14,00,52,4.40
2013,04,14,00,53,4.40
2013,04,14,00,54,4.40
2013,04,14,00,55,4.40
2013,04,14,00,56,4.40
2013,04,14,00,57,4.30
2013,04,14,00,58,4.30
2013,04,14,00,59,4.30
2013,04,14,01,00,4.30
2013,04,14,01,01,4.30
2013,04,14,01,02,4.30
2013,04,14,01,03,4.40
2013,04,14,01,04,4.40
2013,04,14,01,05,4.40
2013,04,14,01,06,4.40
2013,04,14,01,07,4.40
2013,04,14,01,08,4.40
2013,04,14,01,09,4.40
2013,04,14,01,10,4.40
2013,04,14,01,11,4.40
2013,04,14,01,12,4.40
2013,04,14,01,13,4.40
2013,04,14,01,14,4.50
2013,04,14,01,15,4.50
2013,04,14,01,16,4.50
2013,04,14,01,17,4.50
2013,04,14,01,18,4.50
2013,04,14,01,19,4.50
2013,04,14,01,20,4.50
2013,04,14,01,21,4.50
2013,04,14,01,22,4.50
2013,04,14,01,23,4.50
2013,04,14,01,24,4.50
2013,04,14,01,25,4.50
2013,04,14,01,26,4.50
2013,04,14,01,27,4.50
2013,04,14,01,28,4.50
2013,04,14,01,29,4.50
2013,04,14,01,30,4.50
2013,04,14,01,31,4.50
2013,04,14,01,32,4.50
2013,04,14,01,33,4.50
2013,04,14,01,34,4.50
2013,04,14,01,35,4.50
2013,04,14,01,36,4.40
2013,04,14,01,37,4.40
2013,04,14,01,38,4.40
2013,04,14,01,39,4.40
2013,04,14,01,40,4.40
2013,04,14,01,41,4.40
2013,04,14,01,42,4.40
2013,04,14,01,43,4.40
2013,04,14,01,44,4.30
2013,04,14,01,45,4.30
2013,04,14,01,46,4.30
2013,04,14,01,47,4.30
2013,04,14,01,48,4.30
2013,04,14,01,49,4.30
2013,04,14,01,50,4.30
2013,04,14,01,51,4.20
2013,04,14,01,52,4.20
2013,04,14,01,53,4.20
2013,04,14,01,54,4.20
2013,04,14,01,55,4.20
2013,04,14,01,56,4.20
2013,04,14,01,57,4.20
2013,04,14,01,58,4.20
2013,04,14,01,59,4.20
2013,04,14,02,00,4.20
2013,04,14,02,01,4.10
2013,04,14,02,02,4.10
2013,04,14,02,03,4.10
2013,04,14,02,04,4.10
2013,04,14,02,05,4.10
2013,04,14,02,06,4.10
2013,04,14,02,07,4.10
2013,04,14,02,08,4.10
2013,04,14,02,09,4.00
2013,04,14,02,10,4.00
2013,04,14,02,11,4.00
2013,04,14,02,12,4.00
2013,04,14,02,13,4.00
2013,04,14,02,14,4.00
2013,04,14,02,15,4.00
2013,04,14,02,16,4.00
2013,04,14,02,17,4.00
2013,04,14,02,18,4.00
2013,04,14,02,19,4.00
2013,04,14,02,20,4.00
2013,04,14,02,21,4.00
2013,04,14,02,22,4.00
2013,04,14,02,23,3.90
2013,04,14,02,24,3.90
2013,04,14,02,25,3.90
2013,04,14,02,26,3.90
2013,04,14,02,27,3.90
2013,04,14,02,28,3.90
2013,04,14,02,29,3.90
2013,04,14,02,30,3.90
2013,04,14,02,31,3.90
2013,04,14,02,32,3.90
2013,04,14,02,33,3.90
2013,04,14,02,34,3.90
2013,04,14,02,35,3.90
2013,04,14,02,36,3.90
2013,04,14,02,37,3.90
2013,04,14,02,38,3.90
2013,04,14,02,39,3.90
2013,04,14,02,40,3.90
2013,04,14,02,41,3.90
2013,04,14,02,42,3.90
2013,04,14,02,43,3.90
2013,04,14,02,44,3.90
2013,04,14,02,45,3.90
2013,04,14,02,46,3.90
2013,04,14,02,47,3.90
2013,04,14,02,48,3.90
2013,04,14,02,49,3.90
2013,04,14,02,50,3.90
2013,04,14,02,51,3.90
2013,04,14,02,52,3.90
2013,04,14,02,53,3.90
2013,04,14,02,54,3.90
2013,04,14,02,55,3.90
2013,04,14,02,56,3.90
2013,04,14,02,57,3.90
2013,04,14,02,58,3.80
2013,04,14,02,59,3.80
2013,04,14,03,00,3.80
2013,04,14,03,01,3.80
2013,04,14,03,02,3.80
2013,04,14,03,03,3.90
2013,04,14,03,04,3.80
2013,04,14,03,05,3.80
2013,04,14,03,06,3.80
2013,04,14,03,07,3.80
2013,04,14,03,08,3.80
2013,04,14,03,09,3.90
2013,04,14,03,10,3.90
2013,04,14,03,11,3.90
2013,04,14,03,12,3.90
2013,04,14,03,13,3.90
2013,04,14,03,14,3.90
2013,04,14,03,15,3.80
2013,04,14,03,16,3.80
2013,04,14,03,17,3.80
2013,04,14,03,18,3.80
2013,04,14,03,19,3.80
2013,04,14,03,20,3.80
2013,04,14,03,21,3.80
2013,04,14,03,22,3.80
2013,04,14,03,23,3.80
2013,04,14,03,24,3.80
2013,04,14,03,25,3.80
2013,04,14,03,26,3.80
2013,04,14,03,27,3.80
2013,04,14,03,28,3.80
2013,04,14,03,29,3.80
2013,04,14,03,30,3.80
2013,04,14,03,31,3.80
2013,04,14,03,32,3.80
2013,04,14,03,33,3.80
2013,04,14,03,34,3.80
2013,04,14,03,35,3.70
2013,04,14,03,36,3.70
2013,04,14,03,37,3.70
2013,04,14,03,38,3.70
2013,04,14,03,39,3.70
2013,04,14,03,40,3.70
2013,04,14,03,41,3.70
2013,04,14,03,42,3.70
2013,04,14,03,43,3.70
2013,04,14,03,44,3.70
2013,04,14,03,45,3.70
2013,04,14,03,46,3.70
2013,04,14,03,47,3.60
2013,04,14,03,48,3.60
2013,04,14,03,49,3.60
2013,04,14,03,50,3.60
2013,04,14,03,51,3.60
2013,04,14,03,52,3.60
2013,04,14,03,53,3.60
2013,04,14,03,54,3.60
2013,04,14,03,55,3.60
2013,04,14,03,56,3.60
2013,04,14,03,57,3.60
2013,04,14,03,58,3.60
2013,04,14,03,59,3.60
2013,04,14,04,00,3.60
2013,04,14,04,01,3.60
2013,04,14,04,02,3.60
2013,04,14,04,03,3.60
2013,04,14,04,04,3.50
2013,04,14,04,05,3.50
2013,04,14,04,06,3.50
2013,04,14,04,07,3.50
2013,04,14,04,08,3.50
2013,04,14,04,09,3.50
2013,04,14,04,10,3.60
2013,04,14,04,11,3.60
2013,04,14,04,12,3.60
2013,04,14,04,13,3.60
2013,04,14,04,14,3.60
2013,04,14,04,15,3.60
2013,04,14,04,16,3.60
2013,04,14,04,17,3.60
2013,04,14,04,18,3.60
2013,04,14,04,19,3.60
2013,04,14,04,20,3.60
2013,04,14,04,21,3.60
2013,04,14,04,22,3.60
2013,04,14,04,23,3.50
2013,04,14,04,24,3.50
2013,04,14,04,25,3.50
2013,04,14,04,26,3.50
2013,04,14,04,27,3.50
2013,04,14,04,28,3.50
2013,04,14,04,29,3.50
2013,04,14,04,30,3.50
2013,04,14,04,31,3.40
2013,04,14,04,32,3.40
2013,04,14,04,33,3.40
2013,04,14,04,34,3.40
2013,04,14,04,35,3.40
2013,04,14,04,36,3.40
2013,04,14,04,37,3.40
2013,04,14,04,38,3.40
2013,04,14,04,39,3.30
2013,04,14,04,40,3.30
2013,04,14,04,41,3.30
2013,04,14,04,42,3.30
2013,04,14,04,43,3.30
2013,04,14,04,44,3.30
2013,04,14,04,45,3.30
2013,04,14,04,46,3.30
2013,04,14,04,47,3.30
2013,04,14,04,48,3.30
2013,04,14,04,49,3.30
2013,04,14,04,50,3.30
2013,04,14,04,51,3.30
2013,04,14,04,52,3.30
2013,04,14,04,53,3.30
2013,04,14,04,54,3.30
2013,04,14,04,55,3.30
2013,04,14,04,56,3.30
2013,04,14,04,57,3.30
2013,04,14,04,58,3.30
2013,04,14,04,59,3.30
2013,04,14,05,00,3.30
2013,04,14,05,01,3.30
2013,04,14,05,02,3.30
2013,04,14,05,03,3.30
2013,04,14,05,04,3.30
2013,04,14,05,05,3.30
2013,04,14,05,06,3.30
2013,04,14,05,07,3.30
2013,04,14,05,08,3.30
2013,04,14,05,09,3.30
2013,04,14,05,10,3.30
2013,04,14,05,11,3.30
2013,04,14,05,12,3.30
2013,04,14,05,13,3.30
2013,04,14,05,14,3.30
2013,04,14,05,15,3.30
2013,04,14,05,16,3.30
2013,04,14,05,17,3.30
2013,04,14,05,18,3.30
2013,04,14,05,19,3.30
2013,04,14,05,20,3.30
2013,04,14,05,21,3.30
2013,04,14,05,22,3.30
2013,04,14,05,23,3.30
2013,04,14,05,24,3.30
2013,04,14,05,25,3.20
2013,04,14,05,26,3.20
2013,04,14,05,27,3.20
2013,04,14,05,28,3.20
2013,04,14,05,29,3.20
2013,04,14,05,30,3.20
2013,04,14,05,31,3.10
2013,04,14,05,32,3.10
2013,04,14,05,33,3.10
2013,04,14,05,34,3.10
2013,04,14,05,35,3.10
2013,04,14,05,36,3.10
2013,04,14,05,37,3.00
2013,04,14,05,38,3.00
2013,04,14,05,39,3.00
2013,04,14,05,40,3.00
2013,04,14,05,41,2.90
2013,04,14,05,42,2.90
2013,04,14,05,43,2.90
2013,04,14,05,44,2.90
2013,04,14,05,45,2.90
2013,04,14,05,46,2.90
2013,04,14,05,47,2.90
2013,04,14,05,48,2.80
2013,04,14,05,49,2.80
2013,04,14,05,50,2.80
2013,04,14,05,51,2.80
2013,04,14,05,52,2.80
2013,04,14,05,53,2.80
2013,04,14,05,54,2.80
2013,04,14,05,55,2.80
2013,04,14,05,56,2.80
2013,04,14,05,57,2.80
2013,04,14,05,58,2.70
2013,04,14,05,59,2.70
2013,04,14,06,00,2.70
2013,04,14,06,01,2.70
2013,04,14,06,02,2.70
2013,04,14,06,03,2.70
2013,04,14,06,04,2.60
2013,04,14,06,05,2.60
2013,04,14,06,06,2.60
2013,04,14,06,07,2.60
2013,04,14,06,08,2.60
2013,04,14,06,09,2.50
2013,04,14,06,10,2.50
2013,04,14,06,11,2.50
2013,04,14,06,12,2.50
2013,04,14,06,13,2.50
2013,04,14,06,14,2.50
2013,04,14,06,15,2.50
2013,04,14,06,16,2.50
2013,04,14,06,17,2.50
2013,04,14,06,18,2.50
2013,04,14,06,19,2.50
2013,04,14,06,20,2.50
2013,04,14,06,21,2.50
2013,04,14,06,22,2.50
2013,04,14,06,23,2.50
2013,04,14,06,24,2.50
2013,04,14,06,25,2.40
2013,04,14,06,26,2.40
2013,04,14,06,27,2.40
2013,04,14,06,28,2.40
2013,04,14,06,29,2.40
2013,04,14,06,30,2.40
2013,04,14,06,31,2.40
2013,04,14,06,32,2.40
2013,04,14,06,33,2.40
2013,04,14,06,34,2.40
2013,04,14,06,35,2.40
2013,04,14,06,36,2.40
2013,04,14,06,37,2.40
2013,04,14,06,38,2.40
2013,04,14,06,39,2.40
2013,04,14,06,40,2.40
2013,04,14,06,41,2.40
2013,04,14,06,42,2.40
2013,04,14,06,43,2.40
2013,04,14,06,44,2.40
2013,04,14,06,45,2.40
2013,04,14,06,46,2.40
2013,04,14,06,47,2.40
2013,04,14,06,48,2.40
2013,04,14,06,49,2.40
2013,04,14,06,50,2.40
2013,04,14,06,51,2.40
2013,04,14,06,52,2.40
2013,04,14,06,53,2.40
2013,04,14,06,54,2.40
2013,04,14,06,55,2.40
2013,04,14,06,56,2.40
2013,04,14,06,57,2.40
2013,04,14,06,58,2.50
2013,04,14,06,59,2.50
2013,04,14,07,00,2.50
2013,04,14,07,01,2.50
2013,04,14,07,02,2.50
2013,04,14,07,03,2.50
2013,04,14,07,04,2.50
2013,04,14,07,05,2.60
2013,04,14,07,06,2.60
2013,04,14,07,07,2.60
2013,04,14,07,08,2.60
2013,04,14,07,09,2.60
2013,04,14,07,10,2.60
2013,04,14,07,11,2.60
2013,04,14,07,12,2.60
2013,04,14,07,13,2.60
2013,04,14,07,14,2.70
2013,04,14,07,15,2.70
2013,04,14,07,16,2.70
2013,04,14,07,17,2.70
2013,04,14,07,18,2.70
2013,04,14,07,19,2.70
2013,04,14,07,20,2.70
2013,04,14,07,21,2.80
2013,04,14,07,22,2.80
2013,04,14,07,23,2.80
2013,04,14,07,24,2.80
2013,04,14,07,25,2.80
2013,04,14,07,26,2.80
2013,04,14,07,27,2.80
2013,04,14,07,28,2.90
2013,04,14,07,29,2.90
2013,04,14,07,30,2.90
2013,04,14,07,31,2.90
2013,04,14,07,32,2.90
2013,04,14,07,33,3.00
2013,04,14,07,34,3.00
2013,04,14,07,35,3.00
2013,04,14,07,36,3.00
2013,04,14,07,37,3.10
2013,04,14,07,38,3.10
2013,04,14,07,39,3.10
2013,04,14,07,40,3.10
2013,04,14,07,41,3.20
2013,04,14,07,42,3.20
2013,04,14,07,43,3.20
2013,04,14,07,44,3.20
2013,04,14,07,45,3.30
2013,04,14,07,46,3.30
2013,04,14,07,47,3.30
2013,04,14,07,48,3.30
2013,04,14,07,49,3.30
2013,04,14,07,50,3.30
2013,04,14,07,51,3.40
2013,04,14,07,52,3.40
2013,04,14,07,53,3.40
2013,04,14,07,54,3.40
2013,04,14,07,55,3.40
2013,04,14,07,56,3.40
2013,04,14,07,57,3.40
2013,04,14,07,58,3.40
2013,04,14,07,59,3.50
2013,04,14,08,00,3.50
2013,04,14,08,01,3.50
2013,04,14,08,02,3.50
2013,04,14,08,03,3.50
2013,04,14,08,04,3.50
2013,04,14,08,05,3.60
2013,04,14,08,06,3.60
2013,04,14,08,07,3.60
2013,04,14,08,08,3.60
2013,04,14,08,09,3.60
2013,04,14,08,10,3.60
2013,04,14,08,11,3.60
2013,04,14,08,12,3.60
2013,04,14,08,13,3.60
2013,04,14,08,14,3.60
2013,04,14,08,15,3.70
2013,04,14,08,16,3.70
2013,04,14,08,17,3.70
2013,04,14,08,18,3.70
2013,04,14,08,19,3.70
2013,04,14,08,20,3.70
2013,04,14,08,21,3.80
2013,04,14,08,22,3.80
2013,04,14,08,23,3.80
2013,04,14,08,24,3.80
2013,04,14,08,25,3.80
2013,04,14,08,26,3.80
2013,04,14,08,27,3.80
2013,04,14,08,28,3.80
2013,04,14,08,29,3.90
2013,04,14,08,30,3.90
2013,04,14,08,31,3.90
2013,04,14,08,32,3.90
2013,04,14,08,33,3.90
2013,04,14,08,34,3.90
2013,04,14,08,35,3.90
2013,04,14,08,36,4.00
2013,04,14,08,37,4.00
2013,04,14,08,38,4.00
2013,04,14,08,39,4.00
2013,04,14,08,40,4.00
2013,04,14,08,41,4.10
2013,04,14,08,42,4.10
2013,04,14,08,43,4.10
2013,04,14,08,44,4.10
2013,04,14,08,45,4.10
2013,04,14,08,46,4.10
2013,04,14,08,47,4.10
2013,04,14,08,48,4.20
2013,04,14,08,49,4.20
2013,04,14,08,50,4.20
2013,04,14,08,51,4.20
2013,04,14,08,52,4.20
2013,04,14,08,53,4.30
2013,04,14,08,54,4.30
2013,04,14,08,55,4.30
2013,04,14,08,56,4.30
2013,04,14,08,57,4.30
2013,04,14,08,58,4.30
2013,04,14,08,59,4.30
2013,04,14,09,00,4.30
2013,04,14,09,01,4.40
2013,04,14,09,02,4.40
2013,04,14,09,03,4.40
2013,04,14,09,04,4.40
2013,04,14,09,05,4.40
2013,04,14,09,06,4.50
2013,04,14,09,07,4.50
2013,04,14,09,08,4.50
2013,04,14,09,09,4.60
2013,04,14,09,10,4.60
2013,04,14,09,11,4.70
2013,04,14,09,12,4.70
2013,04,14,09,13,4.70
2013,04,14,09,14,4.80
2013,04,14,09,15,4.80
2013,04,14,09,16,4.90
2013,04,14,09,17,4.90
2013,04,14,09,18,4.90
2013,04,14,09,19,4.90
2013,04,14,09,20,5.00
2013,04,14,09,21,5.00
2013,04,14,09,22,5.10
2013,04,14,09,23,5.10
2013,04,14,09,24,5.10
2013,04,14,09,25,5.20
2013,04,14,09,26,5.20
2013,04,14,09,27,5.20
2013,04,14,09,28,5.20
2013,04,14,09,29,5.30
2013,04,14,09,30,5.30
2013,04,14,09,31,5.30
2013,04,14,09,32,5.30
2013,04,14,09,33,5.30
2013,04,14,09,34,5.40
2013,04,14,09,35,5.40
2013,04,14,09,36,5.40
2013,04,14,09,37,5.40
2013,04,14,09,38,5.50
2013,04,14,09,39,5.50
2013,04,14,09,40,5.60
2013,04,14,09,41,5.60
2013,04,14,09,42,5.70
2013,04,14,09,43,5.70
2013,04,14,09,44,5.70
2013,04,14,09,45,5.80
2013,04,14,09,46,5.80
2013,04,14,09,47,5.90
2013,04,14,09,48,5.90
2013,04,14,09,49,6.00
2013,04,14,09,50,6.00
2013,04,14,09,51,6.10
2013,04,14,09,52,6.20
2013,04,14,09,53,6.20
2013,04,14,09,54,6.30
2013,04,14,09,55,6.30
2013,04,14,09,56,6.30
2013,04,14,09,57,6.40
2013,04,14,09,58,6.40
2013,04,14,09,59,6.50
2013,04,14,10,00,6.50
2013,04,14,10,01,6.60
2013,04,14,10,02,6.60
2013,04,14,10,03,6.60
2013,04,14,10,04,6.70
2013,04,14,10,05,6.70
2013,04,14,10,06,6.70
2013,04,14,10,07,6.80
2013,04,14,10,08,6.80
2013,04,14,10,09,6.80
2013,04,14,10,10,6.80
2013,04,14,10,11,6.80
2013,04,14,10,12,6.80
2013,04,14,10,13,6.90
2013,04,14,10,14,6.90
2013,04,14,10,15,6.90
2013,04,14,10,16,6.90
2013,04,14,10,17,6.90
2013,04,14,10,18,6.90
2013,04,14,10,19,6.90
2013,04,14,10,20,7.00
2013,04,14,10,21,7.00
2013,04,14,10,22,7.00
2013,04,14,10,23,7.00
2013,04,14,10,24,7.00
2013,04,14,10,25,7.00
2013,04,14,10,26,7.10
2013,04,14,10,27,7.10
2013,04,14,10,28,7.10
2013,04,14,10,29,7.20
2013,04,14,10,30,7.20
2013,04,14,10,31,7.20
2013,04,14,10,32,7.20
2013,04,14,10,33,7.20
2013,04,14,10,34,7.20
2013,04,14,10,35,7.20
2013,04,14,10,36,7.20
2013,04,14,10,37,7.10
2013,04,14,10,38,7.10
2013,04,14,10,39,7.10
2013,04,14,10,40,7.00
2013,04,14,10,41,7.00
2013,04,14,10,42,6.90
2013,04,14,10,43,6.90
2013,04,14,10,44,6.90
2013,04,14,10,45,6.80
2013,04,14,10,46,6.80
2013,04,14,10,47,6.80
2013,04,14,10,48,6.80
2013,04,14,10,49,6.80
2013,04,14,10,50,6.80
2013,04,14,10,51,6.80
2013,04,14,10,52,6.80
2013,04,14,10,53,6.80
2013,04,14,10,54,6.80
2013,04,14,10,55,6.80
2013,04,14,10,56,6.80
2013,04,14,10,57,6.80
2013,04,14,10,58,6.80
2013,04,14,10,59,6.80
2013,04,14,11,00,6.80
2013,04,14,11,01,6.80
2013,04,14,11,02,6.80
2013,04,14,11,03,6.80
2013,04,14,11,04,6.80
2013,04,14,11,05,6.80
2013,04,14,11,06,6.80
2013,04,14,11,07,6.80
2013,04,14,11,08,6.80
2013,04,14,11,09,6.80
2013,04,14,11,10,6.90
2013,04,14,11,11,6.90
2013,04,14,11,12,7.00
2013,04,14,11,13,7.10
2013,04,14,11,14,7.10
2013,04,14,11,15,7.20
2013,04,14,11,16,7.30
2013,04,14,11,17,7.40
2013,04,14,11,18,7.50
2013,04,14,11,19,7.50
2013,04,14,11,20,7.60
2013,04,14,11,21,7.60
2013,04,14,11,22,7.70
2013,04,14,11,23,7.80
2013,04,14,11,24,7.80
2013,04,14,11,25,7.90
2013,04,14,11,26,8.00
2013,04,14,11,27,8.10
2013,04,14,11,28,8.20
2013,04,14,11,29,8.30
2013,04,14,11,30,8.40
2013,04,14,11,31,8.40
2013,04,14,11,32,8.50
2013,04,14,11,33,8.50
2013,04,14,11,34,8.60
2013,04,14,11,35,8.60
2013,04,14,11,36,8.70
2013,04,14,11,37,8.70
2013,04,14,11,38,8.70
2013,04,14,11,39,8.70
2013,04,14,11,40,8.70
2013,04,14,11,41,8.70
2013,04,14,11,42,8.70
2013,04,14,11,43,8.60
2013,04,14,11,44,8.60
2013,04,14,11,45,8.70
2013,04,14,11,46,8.70
2013,04,14,11,47,8.60
2013,04,14,11,48,8.60
2013,04,14,11,49,8.60
2013,04,14,11,50,8.60
2013,04,14,11,51,8.60
2013,04,14,11,52,8.60
2013,04,14,11,53,8.60
2013,04,14,11,54,8.50
2013,04,14,11,55,8.50
2013,04,14,11,56,8.40
2013,04,14,11,57,8.40
2013,04,14,11,58,8.40
2013,04,14,11,59,8.30
2013,04,14,12,00,8.30
2013,04,14,12,01,8.20
2013,04,14,12,02,8.20
2013,04,14,12,03,8.20
2013,04,14,12,04,8.20
2013,04,14,12,05,8.20
2013,04,14,12,06,8.10
2013,04,14,12,07,8.10
2013,04,14,12,08,8.10
2013,04,14,12,09,8.10
2013,04,14,12,10,8.10
2013,04,14,12,11,8.10
2013,04,14,12,12,8.10
2013,04,14,12,13,8.10
2013,04,14,12,14,8.10
2013,04,14,12,15,8.10
2013,04,14,12,16,8.10
2013,04,14,12,17,8.10
2013,04,14,12,18,8.00
2013,04,14,12,19,8.00
2013,04,14,12,20,8.00
2013,04,14,12,21,8.00
2013,04,14,12,22,8.00
2013,04,14,12,23,8.00
2013,04,14,12,24,7.90
2013,04,14,12,25,7.90
2013,04,14,12,26,7.90
2013,04,14,12,27,7.90
2013,04,14,12,28,8.00
2013,04,14,12,29,8.00
2013,04,14,12,30,8.00
2013,04,14,12,31,8.00
2013,04,14,12,32,8.00
2013,04,14,12,33,8.00
2013,04,14,12,34,8.00
2013,04,14,12,35,8.00
2013,04,14,12,36,7.90
2013,04,14,12,37,7.90
2013,04,14,12,38,8.00
2013,04,14,12,39,8.00
2013,04,14,12,40,8.00
2013,04,14,12,41,8.00
2013,04,14,12,42,8.00
2013,04,14,12,43,7.90
2013,04,14,12,44,8.00
2013,04,14,12,45,8.00
2013,04,14,12,46,8.00
2013,04,14,12,47,8.00
2013,04,14,12,48,8.10
2013,04,14,12,49,8.10
2013,04,14,12,50,8.10
2013,04,14,12,51,8.10
2013,04,14,12,52,8.10
2013,04,14,12,53,8.20
2013,04,14,12,54,8.10
2013,04,14,12,55,8.10
2013,04,14,12,56,8.10
2013,04,14,12,57,8.10
2013,04,14,12,58,8.10
2013,04,14,12,59,8.10
2013,04,14,13,00,8.10
2013,04,14,13,01,8.00
2013,04,14,13,02,8.00
2013,04,14,13,03,8.00
2013,04,14,13,04,7.90
2013,04,14,13,05,7.90
2013,04,14,13,06,7.90
2013,04,14,13,07,7.90
2013,04,14,13,08,7.90
2013,04,14,13,09,7.90
2013,04,14,13,10,7.90
2013,04,14,13,11,7.90
2013,04,14,13,12,8.00
2013,04,14,13,13,8.00
2013,04,14,13,14,8.00
2013,04,14,13,15,8.10
2013,04,14,13,16,8.10
2013,04,14,13,17,8.10
2013,04,14,13,18,8.20
2013,04,14,13,19,8.30
2013,04,14,13,20,8.40
2013,04,14,13,21,8.40
2013,04,14,13,22,8.50
2013,04,14,13,23,8.50
2013,04,14,13,24,8.60
2013,04,14,13,25,8.60
2013,04,14,13,26,8.70
2013,04,14,13,27,8.80
2013,04,14,13,28,8.80
2013,04,14,13,29,8.80
2013,04,14,13,30,8.90
2013,04,14,13,31,8.90
2013,04,14,13,32,8.90
2013,04,14,13,33,8.90
2013,04,14,13,34,8.90
2013,04,14,13,35,9.00
2013,04,14,13,36,9.00
2013,04,14,13,37,9.00
2013,04,14,13,38,9.10
2013,04,14,13,39,9.10
2013,04,14,13,40,9.10
2013,04,14,13,41,9.10
2013,04,14,13,42,9.20
2013,04,14,13,43,9.20
2013,04,14,13,44,9.30
2013,04,14,13,45,9.30
2013,04,14,13,46,9.30
2013,04,14,13,47,9.40
2013,04,14,13,48,9.40
2013,04,14,13,49,9.40
2013,04,14,13,50,9.50
2013,04,14,13,51,9.50
2013,04,14,13,52,9.50
2013,04,14,13,53,9.50
2013,04,14,13,54,9.50
2013,04,14,13,55,9.60
2013,04,14,13,56,9.60
2013,04,14,13,57,9.70
2013,04,14,13,58,9.70
2013,04,14,13,59,9.70
2013,04,14,14,00,9.70
2013,04,14,14,01,9.70
2013,04,14,14,02,9.70
2013,04,14,14,03,9.70
2013,04,14,14,04,9.70
2013,04,14,14,05,9.80
2013,04,14,14,06,9.80
2013,04,14,14,07,9.90
2013,04,14,14,08,10.00
2013,04,14,14,09,10.00
2013,04,14,14,10,10.00
2013,04,14,14,11,10.10
2013,04,14,14,12,10.10
2013,04,14,14,13,10.00
2013,04,14,14,14,10.00
2013,04,14,14,15,9.90
2013,04,14,14,16,9.80
2013,04,14,14,17,9.80
2013,04,14,14,18,9.80
2013,04,14,14,19,9.80
2013,04,14,14,20,9.80
2013,04,14,14,21,9.90
2013,04,14,14,22,9.90
2013,04,14,14,23,9.90
2013,04,14,14,24,9.90
2013,04,14,14,25,10.00
2013,04,14,14,26,10.00
2013,04,14,14,27,10.00
2013,04,14,14,28,10.00
2013,04,14,14,29,10.00
2013,04,14,14,30,10.00
2013,04,14,14,31,10.00
2013,04,14,14,32,10.10
2013,04,14,14,33,10.10
2013,04,14,14,34,10.20
2013,04,14,14,35,10.20
2013,04,14,14,36,10.20
2013,04,14,14,37,10.10
2013,04,14,14,38,10.10
2013,04,14,14,39,10.10
2013,04,14,14,40,10.10
2013,04,14,14,41,10.00
2013,04,14,14,42,10.00
2013,04,14,14,43,10.00
2013,04,14,14,44,9.90
2013,04,14,14,45,9.90
2013,04,14,14,46,9.90
2013,04,14,14,47,9.80
2013,04,14,14,48,9.80
2013,04,14,14,49,9.80
2013,04,14,14,50,9.80
2013,04,14,14,51,9.80
2013,04,14,14,52,9.80
2013,04,14,14,53,9.80
2013,04,14,14,54,9.70
2013,04,14,14,55,9.70
2013,04,14,14,56,9.70
2013,04,14,14,57,9.70
2013,04,14,14,58,9.70
2013,04,14,14,59,9.70
2013,04,14,15,00,9.70
2013,04,14,15,01,9.60
2013,04,14,15,02,9.60
2013,04,14,15,03,9.60
2013,04,14,15,04,9.60
2013,04,14,15,05,9.60
2013,04,14,15,06,9.50
2013,04,14,15,07,9.50
2013,04,14,15,08,9.40
2013,04,14,15,09,9.40
2013,04,14,15,10,9.40
2013,04,14,15,11,9.30
2013,04,14,15,12,9.30
2013,04,14,15,13,9.30
2013,04,14,15,14,9.30
2013,04,14,15,15,9.30
2013,04,14,15,16,9.30
2013,04,14,15,17,9.30
2013,04,14,15,18,9.30
2013,04,14,15,19,9.40
2013,04,14,15,20,9.40
2013,04,14,15,21,9.50
2013,04,14,15,22,9.50
2013,04,14,15,23,9.60
2013,04,14,15,24,9.70
2013,04,14,15,25,9.80
2013,04,14,15,26,9.90
2013,04,14,15,27,10.00
2013,04,14,15,28,10.00
2013,04,14,15,29,10.00
2013,04,14,15,30,10.00
2013,04,14,15,31,10.00
2013,04,14,15,32,10.00
2013,04,14,15,33,10.00
2013,04,14,15,34,10.00
2013,04,14,15,35,10.00
2013,04,14,15,36,9.90
2013,04,14,15,37,9.90
2013,04,14,15,38,9.90
2013,04,14,15,39,9.90
2013,04,14,15,40,9.90
2013,04,14,15,41,9.90
2013,04,14,15,42,9.80
2013,04,14,15,43,9.80
2013,04,14,15,44,9.80
2013,04,14,15,45,9.70
2013,04,14,15,46,9.70
2013,04,14,15,47,9.70
2013,04,14,15,48,9.70
2013,04,14,15,49,9.60
2013,04,14,15,50,9.60
2013,04,14,15,51,9.60
2013,04,14,15,52,9.60
2013,04,14,15,53,9.60
2013,04,14,15,54,9.60
2013,04,14,15,55,9.50
2013,04,14,15,56,9.50
2013,04,14,15,57,9.40
2013,04,14,15,58,9.40
2013,04,14,15,59,9.40
2013,04,14,16,00,9.40
2013,04,14,16,01,9.40
2013,04,14,16,02,9.30
2013,04,14,16,03,9.30
2013,04,14,16,04,9.30
2013,04,14,16,05,9.40
2013,04,14,16,06,9.40
2013,04,14,16,07,9.30
2013,04,14,16,08,9.30
2013,04,14,16,09,9.30
2013,04,14,16,10,9.30
2013,04,14,16,11,9.20
2013,04,14,16,12,9.20
2013,04,14,16,13,9.20
2013,04,14,16,14,9.20
2013,04,14,16,15,9.20
2013,04,14,16,16,9.30
2013,04,14,16,17,9.30
2013,04,14,16,18,9.40
2013,04,14,16,19,9.50
2013,04,14,16,20,9.60
2013,04,14,16,21,9.70
2013,04,14,16,22,9.70
2013,04,14,16,23,9.80
2013,04,14,16,24,9.80
2013,04,14,16,25,9.90
2013,04,14,16,26,9.90
2013,04,14,16,27,9.90
2013,04,14,16,28,9.90
2013,04,14,16,29,10.00
2013,04,14,16,30,10.00
2013,04,14,16,31,10.00
2013,04,14,16,32,10.00
2013,04,14,16,33,10.00
2013,04,14,16,34,9.90
2013,04,14,16,35,9.90
2013,04,14,16,36,9.90
2013,04,14,16,37,9.90
2013,04,14,16,38,9.90
2013,04,14,16,39,9.90
2013,04,14,16,40,9.90
2013,04,14,16,41,9.90
2013,04,14,16,42,9.90
2013,04,14,16,43,9.90
2013,04,14,16,44,9.90
2013,04,14,16,45,9.90
2013,04,14,16,46,9.90
2013,04,14,16,47,9.90
2013,04,14,16,48,9.90
2013,04,14,16,49,9.90
2013,04,14,16,50,10.00
2013,04,14,16,51,10.00
2013,04,14,16,52,10.00
2013,04,14,16,53,10.00
2013,04,14,16,54,10.00
2013,04,14,16,55,10.00
2013,04,14,16,56,10.10
2013,04,14,16,57,10.10
2013,04,14,16,58,10.10
2013,04,14,16,59,10.00
2013,04,14,17,00,10.00
2013,04,14,17,01,10.00
2013,04,14,17,02,10.00
2013,04,14,17,03,10.00
2013,04,14,17,04,10.00
2013,04,14,17,05,10.10
2013,04,14,17,06,10.10
2013,04,14,17,07,10.10
2013,04,14,17,08,10.10
2013,04,14,17,09,10.20
2013,04,14,17,10,10.20
2013,04,14,17,11,10.20
2013,04,14,17,12,10.30
2013,04,14,17,13,10.30
2013,04,14,17,14,10.40
2013,04,14,17,15,10.40
2013,04,14,17,16,10.40
2013,04,14,17,17,10.40
2013,04,14,17,18,10.40
2013,04,14,17,19,10.30
2013,04,14,17,20,10.30
2013,04,14,17,21,10.30
2013,04,14,17,22,10.30
2013,04,14,17,23,10.30
2013,04,14,17,24,10.30
2013,04,14,17,25,10.30
2013,04,14,17,26,10.30
2013,04,14,17,27,10.40
2013,04,14,17,28,10.40
2013,04,14,17,29,10.40
2013,04,14,17,30,10.50
2013,04,14,17,31,10.50
2013,04,14,17,32,10.60
2013,04,14,17,33,10.60
2013,04,14,17,34,10.70
2013,04,14,17,35,10.70
2013,04,14,17,36,10.80
2013,04,14,17,37,10.80
2013,04,14,17,38,10.90
2013,04,14,17,39,10.90
2013,04,14,17,40,10.90
2013,04,14,17,41,10.90
2013,04,14,17,42,10.90
2013,04,14,17,43,10.90
2013,04,14,17,44,10.90
2013,04,14,17,45,10.90
2013,04,14,17,46,10.90
2013,04,14,17,47,10.90
2013,04,14,17,48,10.90
2013,04,14,17,49,11.00
2013,04,14,17,50,11.00
2013,04,14,17,51,11.00
2013,04,14,17,52,11.10
2013,04,14,17,53,11.10
2013,04,14,17,54,11.10
2013,04,14,17,55,11.10
2013,04,14,17,56,11.10
2013,04,14,17,57,11.10
2013,04,14,17,58,11.20
2013,04,14,17,59,11.20
2013,04,14,18,00,11.20
2013,04,14,18,01,11.20